sat.trackr.live / text

‹ back to catalog

LEMUR-2-MARHISYAM

NORAD 60536 · 2024-149BW

PAYLOAD ACTIVE UNKNOWN

§ Identity

Operator
Country
US
Launch date
2024-08-16
Launch site
AFWTR
Launch vehicle
Mass (kg)
RCS (m²)

Purposes: earth_obs

External: N2YO · Heavens-Above · Gunter

§ Orbital elements

Epoch: 2026-09-18T04:08:16.268928Z

Period
95.19 min
Inclination
97.6831°
Eccentricity
0.0002691
Mean motion
15.12805485 rev/d
Perigee alt
525.8 km
Apogee alt
529.5 km
Semi-major
6,905.8 km
B*
4.3775e-4
RAAN
344.6600°
Arg perigee
137.3264°
Mean anomaly
222.8176°
Rev number
11,453

§ Raw data

LEMUR-2-MARHISYAM1 60536U 24149BW  26261.17241052  .00007622  00000+0  43775-3 0  99942 60536  97.6831 344.6600 0002691 137.3264 222.8176 15.12805485114534

JSON: /api/v1/satellites/60536 · /tle

For live sub-satellite position, see the globe view (requires WebGL).

§ Visibility from observer

Set your observer location to see the next 7 days of passes ≥ 10°. The values pass through the URL so the page stays shareable.

No JS? Fill the form by hand. The geolocation button needs JavaScript.

§ Radio — SatNOGS DB

ModeDescriptionDownlinkUplink
FM Mode S - Transmitter 1 2.023 GHz
FM Mode S - Transmitter 2 (outside US) 2.201 GHz
FM Mode U - Transmitter 402.790 MHz

3 transmitters · refreshed weekly from db.satnogs.org